Location: Newark
(29.0900°N, 59.8100°E)
Time: 18:03:04
(UTC+00:00)

ISS - Visible Passes

Search period start: 23 August 2019 00:00
Search period end: 02 September 2019 00:00
Orbit: 410 x 420 km, 51.6° (Epoch: 23 August)

Date Brightness Start Highest point End Pass type
(mag) Time Alt. Az. Time Alt. Az. Time Alt. Az.
24 Aug -1.7 00:29:50 10° S 00:32:35 24° SE 00:35:21 10° ENE visible
24 Aug -1.0 23:43:24 12° SE 23:43:58 12° SE 23:45:20 10° E visible
26 Aug -3.9 00:30:00 28° SW 00:31:35 81° NW 00:34:55 10° NE visible
26 Aug -2.4 23:43:34 37° E 23:43:34 37° E 23:46:02 10° ENE visible
28 Aug -2.2 00:29:56 21° WNW 00:30:45 23° NW 00:33:29 10° NNE visible
28 Aug -1.9 23:43:19 26° NNE 23:43:19 26° NNE 23:45:03 10° NNE visible
30 Aug -0.9 23:42:43 11° N 23:42:43 11° N 23:43:04 10° N visible
